EW3970 Weather Reports


time (UTC)temp
C
wind
direction
speed
KPH
gust
KPH
rain 1hr
cm
rain 24hr
cm
rain mn
cm
humidity
%
barometer
mb
20260508001543 24 216 0.0 3.2 0.00 0.00 0.00 58 1013.4
20260508000036 24 0 0.0 4.8 0.00 0.00 0.00 58 1013.5
20260507234535 23 229 1.6 8.0 0.00 0.00 0.00 59 1013.5
20260507233035 24 217 0.0 3.2 0.00 0.00 0.00 57 1013.6
20260507231542 23 217 3.2 6.4 0.00 0.00 0.00 58 1013.6
20260507230042 23 243 1.6 9.7 0.00 0.00 0.00 60 1013.7
20260507224540 23 262 3.2 11.3 0.00 0.00 0.00 59 1013.8
20260507223039 24 257 3.2 14.5 0.00 0.00 0.00 57 1013.9
20260507221542 25 252 3.2 9.7 0.00 0.00 0.00 56 1014.0
20260507220035 25 149 3.2 9.7 0.00 0.00 0.00 55 1014.2
20260507214537 25 224 1.6 8.0 0.00 0.00 0.00 55 1014.3
20260507213037 24 221 1.6 9.7 0.00 0.00 0.00 56 1014.4
20260507211542 25 245 1.6 17.7 0.00 0.00 0.00 55 1014.4
20260507210043 25 262 3.2 12.9 0.00 0.00 0.00 53 1014.5
20260507204538 25 108 3.2 6.4 0.00 0.00 0.00 55 1014.6
20260507203104 25 248 1.6 9.7 0.00 0.00 0.00 54 1014.8
20260507201537 25 166 1.6 6.4 0.00 0.00 0.00 55 1014.9
20260507200035 24 150 1.6 11.3 0.00 0.00 0.00 55 1015.2
20260507194540 24 244 1.6 8.0 0.00 0.00 0.00 55 1015.3
20260507193040 23 310 1.6 9.7 0.00 0.00 0.00 58 1015.5
20260507191539 22 295 3.2 14.5 0.00 0.00 0.00 62 1015.7
20260507190034 23 245 3.2 8.0 0.00 0.00 0.00 61 1015.6
20260507184537 23 229 3.2 8.0 0.00 0.00 0.00 61 1015.9
20260507183036 24 0 0.0 3.2 0.00 0.00 0.00 59 1016.0
20260507181532 23 179 1.6 6.4 0.00 0.00 0.00 61 1015.9
20260507180041 22 250 4.8 9.7 0.00 0.00 0.00 63 1015.9
20260507174541 23 231 0.0 6.4 0.00 0.00 0.00 63 1015.9
20260507173053 22 231 1.6 6.4 0.00 0.00 0.00 63 1016.0
20260507171541 21 0 1.6 6.4 0.00 0.00 0.00 63 1016.0
20260507170039 21 0 0.0 8.0 0.00 0.00 0.00 66 1016.0
20260507164537 21 302 3.2 6.4 0.00 0.00 0.00 65 1016.0
20260507163040 20 0 0.0 3.2 0.00 0.00 0.00 67 1016.2
20260507161545 20 0 0.0 0.0 0.00 0.00 0.00 69 1016.3
20260507160038 19 0 0.0 3.2 0.00 0.00 0.00 72 1016.3
20260507154537 18 51 0.0 3.2 0.00 0.00 0.00 74 1016.6
20260507153035 18 0 0.0 0.0 0.00 0.00 0.00 76 1016.4
20260507151536 18 0 0.0 3.2 0.00 0.00 0.00 77 1016.7
20260507150041 17 0 0.0 3.2 0.00 0.00 0.00 80 1016.7
20260507144537 16 0 0.0 0.0 0.00 0.00 0.00 83 1016.5
20260507143045 16 0 0.0 0.0 0.00 0.00 0.00 84 1016.3
20260507141548 15 0 0.0 3.2 0.00 0.00 0.00 85 1016.2
20260507140036 15 0 0.0 0.0 0.00 0.00 0.00 86 1016.0
20260507134539 15 0 0.0 0.0 0.00 0.00 0.00 89 1015.8
20260507133107 13 0 0.0 0.0 0.00 0.00 0.00 92 1015.7
20260507131543 12 0 0.0 0.0 0.00 0.00 0.00 93 1015.7
20260507130045 12 0 0.0 0.0 0.00 0.00 0.00 93 1015.6
20260507124536 12 0 0.0 0.0 0.00 0.00 0.00 93 1015.6
20260507123040 12 0 0.0 0.0 0.00 0.00 0.00 91 1015.6
20260507121534 13 0 0.0 0.0 0.00 0.00 0.00 92 1015.5
20260507120039 12 0 0.0 0.0 0.00 0.00 0.00 92 1015.6
20260507114542 13 0 0.0 0.0 0.00 0.00 0.00 91 1015.7
20260507113038 13 0 0.0 0.0 0.00 0.00 0.00 91 1015.7
20260507111537 13 0 0.0 0.0 0.00 0.00 0.00 90 1015.7
20260507110042 13 0 0.0 0.0 0.00 0.00 0.00 89 1015.8
20260507104534 13 0 0.0 0.0 0.00 0.00 0.00 90 1015.8
20260507103039 13 0 0.0 0.0 0.00 0.00 0.00 89 1016.0
20260507101538 13 0 0.0 0.0 0.00 0.00 0.00 88 1016.0
20260507100037 14 0 0.0 0.0 0.00 0.00 0.00 88 1016.1
20260507094547 14 0 0.0 0.0 0.00 0.00 0.00 88 1016.1
20260507093037 14 0 0.0 0.0 0.00 0.00 0.00 88 1016.3
20260507091538 14 0 0.0 0.0 0.00 0.00 0.00 87 1016.6
20260507090037 14 0 0.0 0.0 0.00 0.00 0.00 86 1016.6
20260507084539 15 0 0.0 0.0 0.00 0.00 0.00 85 1016.8
20260507083038 15 0 0.0 0.0 0.00 0.00 0.00 85 1016.8
20260507081539 15 0 0.0 0.0 0.00 0.00 0.00 83 1017.0
20260507080041 15 0 0.0 6.4 0.00 0.00 0.00 83 1017.0
20260507074542 15 278 1.6 6.4 0.00 0.00 0.00 82 1017.0
20260507073043 15 314 1.6 4.8 0.00 0.00 0.00 82 1017.1
20260507071539 15 0 0.0 3.2 0.00 0.00 0.00 81 1017.2
20260507070045 16 0 0.0 0.0 0.00 0.00 0.00 82 1017.2
20260507064545 16 0 0.0 0.0 0.00 0.00 0.00 81 1017.3
20260507063037 16 0 0.0 0.0 0.00 0.00 0.00 79 1017.4
20260507061532 16 0 0.0 3.2 0.00 0.00 0.00 78 1017.3
20260507060033 16 313 0.0 4.8 0.00 0.00 0.00 77 1017.3
20260507054538 16 319 0.0 4.8 0.00 0.00 0.00 77 1017.3
20260507053037 16 333 1.6 4.8 0.00 0.00 0.00 76 1017.3
20260507051537 16 316 3.2 6.4 0.00 0.00 0.00 76 1017.3
20260507050037 16 0 1.6 4.8 0.00 0.00 0.00 75 1017.3
20260507044532 17 0 0.0 6.4 0.00 0.00 0.00 74 1017.2
20260507043035 17 0 3.2 9.7 0.00 0.00 0.00 72 1017.2
20260507041535 17 243 1.6 8.0 0.00 0.00 0.00 70 1017.0
20260507040042 17 278 3.2 9.7 0.00 0.00 0.00 69 1016.8
20260507034542 17 266 6.4 11.3 0.00 0.00 0.00 68 1016.7
20260507033045 18 283 1.6 11.3 0.00 0.00 0.00 68 1016.5
20260507031551 18 254 3.2 12.9 0.00 0.00 0.00 66 1016.3
20260507030047 18 263 8.0 12.9 0.00 0.00 0.00 64 1016.2
20260507024559 19 0 4.8 9.7 0.00 0.00 0.00 64 1016.0
20260507023037 19 259 4.8 12.9 0.00 0.00 0.00 61 1015.7
20260507021540 20 321 6.4 14.5 0.00 0.00 0.00 58 1015.6
20260507020036 21 283 8.0 12.9 0.00 0.00 0.00 58 1015.5
20260507014547 22 253 4.8 9.7 0.00 0.00 0.00 59 1015.4
20260507013040 22 240 0.0 4.8 0.00 0.00 0.00 61 1015.3
20260507011544 22 0 0.0 8.0 0.00 0.00 0.00 59 1015.2
20260507010041 22 231 1.6 14.5 0.00 0.00 0.00 59 1015.1
20260507004536 22 236 1.6 12.9 0.00 0.00 0.00 59 1015.1
20260507003039 23 240 1.6 6.4 0.00 0.00 0.00 52 1015.1